Retour au catalogue

SL-6 R/B(2)

ActifHEO
NORAD 7629·ROCKET BODY·🇷🇺 Russia

Lancé Jan 30, 1975 depuis Plesetsk Cosmodrome

Loading…

Prochains Passages (prochaines 24 heures)

TLE

FraisSource: Space-Track

Époque: Sep 14, 2026, 03:33 UTC

1 07629U 75007D   26257.14854374 -.00000110  00000-0  00000-0 0  9994
2 07629  68.9430 227.7384 5181807 299.3455 298.4242  2.00856556239783

Suivez SL-6 R/B(2) en temps réel avec AllMySat

Download on the App Store